This is the latest recevied weather packets stored in our database for station/object K9APR. If no packets are shown the sender has not sent any weather packets the latest 10 day(s).
| Time | Temp. | Humidity | Pressure | Rain* | Wind** | Luminosity | Snow |
|---|---|---|---|---|---|---|---|
| 1778054001 | 5.56° C | 92% | 1009 hPa | 0.51 mm | - | - | - |
| 1778053464 | 5.56° C | 92% | 1009.4 hPa | 0.51 mm | - | - | - |
| 1778052922 | 5.56° C | 92% | 1009.9 hPa | 0.51 mm | - | - | - |
| 1778052382 | 5.56° C | 92% | 1009.9 hPa | 0.25 mm | - | - | - |
| 1778051843 | 5.56° C | 92% | 1009.6 hPa | 0.25 mm | - | - | - |
| 1778051315 | 6.11° C | 92% | 1009.6 hPa | 0.25 mm | - | - | - |
| 1778050765 | 6.11° C | 92% | 1009.6 hPa | 0.25 mm | - | - | - |
| 1778049681 | 6.11° C | 92% | 1009.3 hPa | 1.02 mm | - | - | - |
| 1778049143 | 6.11° C | 92% | 1009.3 hPa | 1.27 mm | - | - | - |
| 1778048603 | 6.11° C | 92% | 1009.5 hPa | 1.78 mm | - | - | - |
| 1778048061 | 6.11° C | 92% | 1009.7 hPa | 2.03 mm | - | - | - |
| 1778047522 | 6.11° C | 92% | 1009.7 hPa | 2.03 mm | - | - | - |
| 1778046982 | 6.11° C | 92% | 1009.7 hPa | 1.78 mm | - | - | - |
| 1778046441 | 6.11° C | 92% | 1009.7 hPa | 2.03 mm | - | - | - |
| 1778045907 | 6.67° C | 92% | 1009.6 hPa | 2.54 mm | - | - | - |
| 1778045363 | 6.67° C | 92% | 1009.6 hPa | 2.79 mm | - | - | - |
| 1778044823 | 6.67° C | 92% | 1009.5 hPa | 3.05 mm | - | - | - |
| 1778044282 | 7.22° C | 92% | 1008.6 hPa | 3.56 mm | - | - | - |
| 1778043741 | 7.22° C | 92% | 1008.5 hPa | 4.32 mm | - | - | - |
| 1778043202 | 7.22° C | 92% | 1008.4 hPa | 0 mm | - | - | - |
| 1778042662 | 7.22° C | 92% | 1008.8 hPa | 0 mm | - | - | - |
| 1778042122 | 7.22° C | 92% | 1009.7 hPa | 0 mm | - | - | - |
| 1778041581 | 7.78° C | 92% | 1009.4 hPa | 0 mm | - | - | - |
| 1778041042 | 7.22° C | 92% | 1009.2 hPa | 0 mm | - | - | - |
| 1778040505 | 7.22° C | 92% | 1009.1 hPa | 0 mm | - | - | - |
* Rain latest hour (hover to see other rain measurements)
** Current wind speed in m/s (hover to see current wind gust speed)